| time (UTC) | temp F | wind direction | speed MPH | gust MPH | rain 1hr in | rain 24hr in | rain mn in | humidity % | barometer mb |
| 20260902211029 | 99 | 8 | 5.0 | 13.0 | 0.00 | 0.00 | 0.00 | 55 | 1009.3 |
| 20260902210529 | 99 | 65 | 5.0 | 13.0 | 0.00 | 0.00 | 0.00 | 56 | 1009.3 |
| 20260902210029 | 100 | 122 | 5.0 | 11.0 | 0.00 | 0.00 | 0.00 | 53 | 1009.4 |
| 20260902205529 | 100 | 85 | 4.0 | 11.0 | 0.00 | 0.00 | 0.00 | 51 | 1009.4 |
| 20260902205030 | 101 | 112 | 4.0 | 9.0 | 0.00 | 0.00 | 0.00 | 49 | 1009.4 |
| 20260902204530 | 101 | 113 | 4.0 | 15.0 | 0.00 | 0.00 | 0.00 | 49 | 1009.4 |
| 20260902204025 | 101 | 105 | 5.0 | 15.0 | 0.00 | 0.00 | 0.00 | 49 | 1009.4 |
| 20260902203525 | 101 | 142 | 4.0 | 10.0 | 0.00 | 0.00 | 0.00 | 48 | 1009.5 |
| 20260902203025 | 102 | 156 | 4.0 | 10.0 | 0.00 | 0.00 | 0.00 | 47 | 1009.6 |
| 20260902202525 | 102 | 162 | 4.0 | 9.0 | 0.00 | 0.00 | 0.00 | 44 | 1009.6 |
| 20260902202026 | 102 | 106 | 4.0 | 9.0 | 0.00 | 0.00 | 0.00 | 43 | 1009.6 |
| 20260902201525 | 103 | 107 | 3.0 | 10.0 | 0.00 | 0.00 | 0.00 | 42 | 1009.6 |
| 20260902201025 | 103 | 77 | 3.0 | 10.0 | 0.00 | 0.00 | 0.00 | 41 | 1009.7 |
| 20260902200525 | 103 | 139 | 3.0 | 9.0 | 0.00 | 0.00 | 0.00 | 39 | 1009.6 |
| 20260902200026 | 103 | 105 | 3.0 | 6.0 | 0.00 | 0.00 | 0.00 | 39 | 1009.8 |
| 20260902195526 | 103 | 177 | 3.0 | 6.0 | 0.00 | 0.00 | 0.00 | 41 | 1009.9 |
| 20260902195025 | 103 | 128 | 3.0 | 8.0 | 0.00 | 0.00 | 0.00 | 38 | 1010.0 |
| 20260902194526 | 102 | 221 | 2.0 | 8.0 | 0.00 | 0.00 | 0.00 | 39 | 1010.0 |
| 20260902194027 | 102 | 106 | 2.0 | 7.0 | 0.00 | 0.00 | 0.00 | 39 | 1010.1 |
| 20260902193525 | 102 | 215 | 3.0 | 8.0 | 0.00 | 0.00 | 0.00 | 40 | 1010.2 |
| 20260902193024 | 102 | 116 | 3.0 | 8.0 | 0.00 | 0.00 | 0.00 | 40 | 1010.3 |
| 20260902192522 | 102 | 130 | 2.0 | 8.0 | 0.00 | 0.00 | 0.00 | 40 | 1010.3 |
| 20260902192022 | 102 | 50 | 3.0 | 8.0 | 0.00 | 0.00 | 0.00 | 39 | 1010.4 |
| 20260902191518 | 101 | 102 | 3.0 | 7.0 | 0.00 | 0.00 | 0.00 | 41 | 1010.5 |
| 20260902191019 | 101 | 65 | 3.0 | 7.0 | 0.00 | 0.00 | 0.00 | 40 | 1010.7 |
| 20260902190518 | 101 | 73 | 2.0 | 5.0 | 0.00 | 0.00 | 0.00 | 42 | 1010.8 |
| 20260902190019 | 102 | 134 | 2.0 | 7.0 | 0.00 | 0.00 | 0.00 | 40 | 1010.9 |
| 20260902185520 | 101 | 193 | 3.0 | 7.0 | 0.00 | 0.00 | 0.00 | 40 | 1010.9 |
| 20260902185020 | 101 | 181 | 3.0 | 10.0 | 0.00 | 0.00 | 0.00 | 41 | 1010.9 |
| 20260902184519 | 101 | 190 | 4.0 | 10.0 | 0.00 | 0.00 | 0.00 | 41 | 1011.1 |
| 20260902183520 | 101 | 185 | 4.0 | 12.0 | 0.00 | 0.00 | 0.00 | 41 | 1011.3 |
| 20260902183019 | 101 | 176 | 3.0 | 12.0 | 0.00 | 0.00 | 0.00 | 40 | 1011.3 |
| 20260902181516 | 100 | 178 | 3.0 | 9.0 | 0.00 | 0.00 | 0.00 | 44 | 1011.6 |
| 20260902181016 | 99 | 111 | 3.0 | 11.0 | 0.00 | 0.00 | 0.00 | 46 | 1011.7 |
| 20260902180514 | 99 | 187 | 4.0 | 11.0 | 0.00 | 0.00 | 0.00 | 45 | 1011.8 |
| 20260902175514 | 98 | 189 | 3.0 | 8.0 | 0.00 | 0.00 | 0.00 | 48 | 1012.0 |
| 20260902175014 | 98 | 136 | 3.0 | 8.0 | 0.00 | 0.00 | 0.00 | 48 | 1012.2 |
| 20260902174513 | 98 | 73 | 4.0 | 9.0 | 0.00 | 0.00 | 0.00 | 49 | 1012.2 |
| 20260902173511 | 98 | 103 | 3.0 | 10.0 | 0.00 | 0.00 | 0.00 | 47 | 1012.4 |
| 20260902173012 | 98 | 181 | 3.0 | 11.0 | 0.00 | 0.00 | 0.00 | 49 | 1012.5 |
| 20260902172011 | 97 | 120 | 4.0 | 9.0 | 0.00 | 0.00 | 0.00 | 51 | 1012.5 |
| 20260902171511 | 97 | 134 | 3.0 | 10.0 | 0.00 | 0.00 | 0.00 | 52 | 1012.7 |
| 20260902171012 | 97 | 196 | 3.0 | 10.0 | 0.00 | 0.00 | 0.00 | 51 | 1012.7 |
| 20260902170511 | 96 | 189 | 4.0 | 11.0 | 0.00 | 0.00 | 0.00 | 50 | 1012.7 |
| 20260902165513 | 95 | 322 | 5.0 | 12.0 | 0.00 | 0.00 | 0.00 | 55 | 1012.9 |
| 20260902165011 | 95 | 181 | 5.0 | 12.0 | 0.00 | 0.00 | 0.00 | 55 | 1012.9 |
| 20260902164508 | 95 | 172 | 5.0 | 11.0 | 0.00 | 0.00 | 0.00 | 55 | 1013.0 |
| 20260902164008 | 94 | 178 | 5.0 | 13.0 | 0.00 | 0.00 | 0.00 | 56 | 1013.1 |
| 20260902162509 | 93 | 187 | 5.0 | 12.0 | 0.00 | 0.00 | 0.00 | 58 | 1013.2 |
| 20260902161509 | 92 | 228 | 6.0 | 15.0 | 0.00 | 0.00 | 0.00 | 60 | 1013.3 |
| 20260902161008 | 92 | 170 | 6.0 | 15.0 | 0.00 | 0.00 | 0.00 | 59 | 1013.3 |
| 20260902160509 | 92 | 163 | 5.0 | 13.0 | 0.00 | 0.00 | 0.00 | 60 | 1013.3 |
| 20260902160010 | 92 | 172 | 5.0 | 13.0 | 0.00 | 0.00 | 0.00 | 60 | 1013.3 |
| 20260902155009 | 91 | 174 | 6.0 | 12.0 | 0.00 | 0.00 | 0.00 | 62 | 1013.4 |
| 20260902154510 | 91 | 179 | 5.0 | 12.0 | 0.00 | 0.00 | 0.00 | 62 | 1013.4 |
| 20260902152507 | 89 | 207 | 4.0 | 12.0 | 0.00 | 0.00 | 0.00 | 66 | 1013.5 |
| 20260902151507 | 89 | 182 | 6.0 | 14.0 | 0.00 | 0.00 | 0.00 | 68 | 1013.5 |
| 20260902151006 | 89 | 178 | 5.0 | 14.0 | 0.00 | 0.00 | 0.00 | 67 | 1013.5 |
| 20260902150507 | 89 | 187 | 4.0 | 13.0 | 0.00 | 0.00 | 0.00 | 69 | 1013.4 |
| 20260902150007 | 88 | 176 | 4.0 | 10.0 | 0.00 | 0.00 | 0.00 | 72 | 1013.5 |
| 20260902145007 | 86 | 171 | 5.0 | 13.0 | 0.00 | 0.00 | 0.00 | 75 | 1013.6 |
| 20260902144507 | 86 | 194 | 4.0 | 12.0 | 0.00 | 0.00 | 0.00 | 77 | 1013.6 |
| 20260902143508 | 86 | 245 | 4.0 | 11.0 | 0.00 | 0.00 | 0.00 | 77 | 1013.6 |
| 20260902143007 | 86 | 184 | 4.0 | 11.0 | 0.00 | 0.00 | 0.00 | 77 | 1013.6 |
| 20260902142508 | 86 | 164 | 5.0 | 13.0 | 0.00 | 0.00 | 0.00 | 79 | 1013.5 |
| 20260902142007 | 85 | 129 | 5.0 | 13.0 | 0.00 | 0.00 | 0.00 | 79 | 1013.4 |
| 20260902141509 | 85 | 169 | 4.0 | 9.0 | 0.00 | 0.00 | 0.00 | 80 | 1013.4 |
| 20260902141005 | 85 | 192 | 4.0 | 9.0 | 0.00 | 0.00 | 0.00 | 81 | 1013.3 |
| 20260902140509 | 85 | 186 | 3.0 | 9.0 | 0.00 | 0.00 | 0.00 | 82 | 1013.4 |
| 20260902140005 | 84 | 198 | 3.0 | 8.0 | 0.00 | 0.00 | 0.00 | 82 | 1013.3 |
| 20260902135002 | 83 | 172 | 4.0 | 7.0 | 0.00 | 0.00 | 0.00 | 84 | 1013.3 |
| 20260902134506 | 83 | 190 | 4.0 | 7.0 | 0.00 | 0.00 | 0.00 | 85 | 1013.3 |
| 20260902134002 | 83 | 183 | 4.0 | 6.0 | 0.00 | 0.00 | 0.00 | 85 | 1013.3 |
| 20260902133506 | 82 | 175 | 4.0 | 7.0 | 0.00 | 0.00 | 0.00 | 86 | 1013.4 |
| 20260902133002 | 82 | 177 | 4.0 | 7.0 | 0.00 | 0.00 | 0.00 | 87 | 1013.3 |
| 20260902131500 | 81 | 171 | 4.0 | 5.0 | 0.00 | 0.00 | 0.00 | 88 | 1013.2 |
| 20260902131001 | 81 | 163 | 4.0 | 5.0 | 0.00 | 0.00 | 0.00 | 89 | 1013.1 |
| 20260902125948 | 80 | 148 | 4.0 | 5.0 | 0.00 | 0.00 | 0.00 | 90 | 1013.1 |
| 20260902124934 | 80 | 158 | 3.0 | 4.0 | 0.00 | 0.00 | 0.00 | 91 | 1013.0 |
| 20260902123934 | 80 | 152 | 4.0 | 5.0 | 0.00 | 0.00 | 0.00 | 91 | 1012.9 |
| 20260902123438 | 80 | 155 | 4.0 | 7.0 | 0.00 | 0.00 | 0.00 | 91 | 1012.9 |
| 20260902122933 | 80 | 174 | 5.0 | 7.0 | 0.00 | 0.00 | 0.00 | 91 | 1012.8 |
| 20260902122437 | 80 | 163 | 5.0 | 6.0 | 0.00 | 0.00 | 0.00 | 91 | 1012.8 |
| 20260902121933 | 80 | 166 | 5.0 | 7.0 | 0.00 | 0.00 | 0.00 | 91 | 1012.8 |
| 20260902121437 | 80 | 166 | 5.0 | 7.0 | 0.00 | 0.00 | 0.00 | 91 | 1012.7 |
| 20260902120934 | 80 | 162 | 5.0 | 7.0 | 0.00 | 0.00 | 0.00 | 91 | 1012.7 |
| 20260902120437 | 80 | 176 | 5.0 | 7.0 | 0.00 | 0.00 | 0.00 | 91 | 1012.8 |
| 20260902115934 | 80 | 173 | 5.0 | 7.0 | 0.00 | 0.00 | 0.00 | 91 | 1012.8 |
| 20260902114933 | 80 | 170 | 4.0 | 6.0 | 0.00 | 0.00 | 0.00 | 91 | 1012.7 |
| 20260902114437 | 80 | 180 | 4.0 | 6.0 | 0.00 | 0.00 | 0.00 | 91 | 1012.6 |
| 20260902113920 | 80 | 167 | 5.0 | 7.0 | 0.00 | 0.00 | 0.00 | 91 | 1012.6 |
| 20260902112910 | 80 | 174 | 5.0 | 6.0 | 0.00 | 0.00 | 0.00 | 91 | 1012.5 |
| 20260902111910 | 80 | 187 | 4.0 | 7.0 | 0.00 | 0.00 | 0.00 | 91 | 1012.6 |
| 20260902111405 | 80 | 178 | 3.0 | 5.0 | 0.00 | 0.00 | 0.00 | 91 | 1012.6 |
| 20260902110902 | 80 | 172 | 3.0 | 4.0 | 0.00 | 0.00 | 0.00 | 91 | 1012.7 |
| 20260902105402 | 80 | 157 | 3.0 | 5.0 | 0.00 | 0.00 | 0.00 | 91 | 1012.8 |
| 20260902104352 | 80 | 160 | 4.0 | 6.0 | 0.00 | 0.00 | 0.00 | 91 | 1012.6 |
| 20260902103853 | 80 | 155 | 4.0 | 6.0 | 0.00 | 0.00 | 0.00 | 91 | 1012.6 |
| 20260902103352 | 80 | 175 | 4.0 | 6.0 | 0.00 | 0.00 | 0.00 | 91 | 1012.6 |
| 20260902102849 | 80 | 180 | 4.0 | 6.0 | 0.00 | 0.00 | 0.00 | 91 | 1012.6 |
| 20260902102349 | 80 | 175 | 3.0 | 5.0 | 0.00 | 0.00 | 0.00 | 91 | 1012.6 |
| 20260902101850 | 80 | 176 | 3.0 | 4.0 | 0.00 | 0.00 | 0.00 | 91 | 1012.6 |
| 20260902101336 | 80 | 167 | 3.0 | 4.0 | 0.00 | 0.00 | 0.00 | 90 | 1012.6 |
| 20260902100836 | 80 | 167 | 2.0 | 3.0 | 0.00 | 0.00 | 0.00 | 90 | 1012.5 |
| 20260902095841 | 80 | 187 | 2.0 | 4.0 | 0.00 | 0.00 | 0.00 | 90 | 1012.5 |
| 20260902095339 | 80 | 184 | 2.0 | 4.0 | 0.00 | 0.00 | 0.00 | 90 | 1012.5 |
| 20260902094837 | 80 | 163 | 2.0 | 4.0 | 0.00 | 0.00 | 0.00 | 90 | 1012.5 |
| 20260902094336 | 80 | 175 | 2.0 | 3.0 | 0.00 | 0.00 | 0.00 | 90 | 1012.6 |
| 20260902093836 | 81 | 167 | 2.0 | 3.0 | 0.00 | 0.00 | 0.00 | 90 | 1012.6 |
| 20260902093320 | 81 | 169 | 2.0 | 3.0 | 0.00 | 0.00 | 0.00 | 90 | 1012.6 |
| 20260902092820 | 81 | 165 | 2.0 | 3.0 | 0.00 | 0.00 | 0.00 | 90 | 1012.6 |
| 20260902092321 | 81 | 180 | 2.0 | 3.0 | 0.00 | 0.00 | 0.00 | 90 | 1012.5 |
| 20260902091820 | 81 | 168 | 2.0 | 3.0 | 0.00 | 0.00 | 0.00 | 90 | 1012.6 |
| 20260902090821 | 81 | 167 | 2.0 | 3.0 | 0.00 | 0.00 | 0.00 | 89 | 1012.6 |
| 20260902090305 | 81 | 180 | 2.0 | 3.0 | 0.00 | 0.00 | 0.00 | 89 | 1012.7 |
| 20260902085806 | 81 | 183 | 2.0 | 3.0 | 0.00 | 0.00 | 0.00 | 89 | 1012.7 |
| 20260902085306 | 81 | 191 | 2.0 | 3.0 | 0.00 | 0.00 | 0.00 | 89 | 1012.7 |
| 20260902084806 | 81 | 169 | 2.0 | 3.0 | 0.00 | 0.00 | 0.00 | 89 | 1012.7 |
| 20260902084306 | 81 | 164 | 3.0 | 5.0 | 0.00 | 0.00 | 0.00 | 89 | 1012.8 |
| 20260902083806 | 81 | 199 | 3.0 | 5.0 | 0.00 | 0.00 | 0.00 | 89 | 1012.8 |
| 20260902083306 | 81 | 182 | 4.0 | 7.0 | 0.00 | 0.00 | 0.00 | 89 | 1012.7 |
| 20260902082806 | 81 | 182 | 4.0 | 7.0 | 0.00 | 0.00 | 0.00 | 89 | 1012.7 |
| 20260902082309 | 81 | 181 | 4.0 | 6.0 | 0.00 | 0.00 | 0.00 | 89 | 1012.7 |
| 20260902081806 | 81 | 160 | 4.0 | 6.0 | 0.00 | 0.00 | 0.00 | 89 | 1012.7 |
| 20260902081311 | 82 | 183 | 3.0 | 4.0 | 0.00 | 0.00 | 0.00 | 88 | 1012.8 |
| 20260902080806 | 82 | 187 | 2.0 | 4.0 | 0.00 | 0.00 | 0.00 | 88 | 1012.9 |
| 20260902080310 | 82 | 185 | 2.0 | 4.0 | 0.00 | 0.00 | 0.00 | 88 | 1012.9 |
| 20260902075806 | 82 | 189 | 2.0 | 3.0 | 0.00 | 0.00 | 0.00 | 88 | 1013.0 |
| 20260902075255 | 82 | 165 | 2.0 | 4.0 | 0.00 | 0.00 | 0.00 | 88 | 1013.0 |
| 20260902074753 | 82 | 155 | 2.0 | 4.0 | 0.00 | 0.00 | 0.00 | 88 | 1013.0 |
| 20260902073738 | 82 | 177 | 3.0 | 5.0 | 0.00 | 0.00 | 0.00 | 88 | 1013.0 |
| 20260902073242 | 82 | 176 | 3.0 | 5.0 | 0.00 | 0.00 | 0.00 | 88 | 1013.0 |
| 20260902072237 | 82 | 182 | 3.0 | 5.0 | 0.00 | 0.00 | 0.00 | 87 | 1013.1 |
| 20260902071237 | 82 | 182 | 3.0 | 6.0 | 0.00 | 0.00 | 0.00 | 87 | 1013.1 |
| 20260902070725 | 82 | 160 | 3.0 | 6.0 | 0.00 | 0.00 | 0.00 | 87 | 1013.1 |
| 20260902070222 | 82 | 189 | 2.0 | 5.0 | 0.00 | 0.00 | 0.00 | 87 | 1013.2 |
| 20260902065722 | 82 | 173 | 2.0 | 2.0 | 0.00 | 0.00 | 0.00 | 87 | 1013.2 |
| 20260902065222 | 82 | 158 | 2.0 | 3.0 | 0.00 | 0.00 | 0.00 | 86 | 1013.3 |
| 20260902064723 | 82 | 151 | 2.0 | 3.0 | 0.00 | 0.00 | 0.00 | 86 | 1013.3 |
| 20260902064223 | 82 | 200 | 2.0 | 3.0 | 0.00 | 0.00 | 0.00 | 86 | 1013.2 |
| 20260902063223 | 82 | 192 | 3.0 | 5.0 | 0.00 | 0.00 | 0.00 | 86 | 1013.3 |
| 20260902062713 | 82 | 180 | 3.0 | 5.0 | 0.00 | 0.00 | 0.00 | 86 | 1013.2 |
| 20260902062208 | 82 | 185 | 3.0 | 5.0 | 0.00 | 0.00 | 0.00 | 86 | 1013.2 |
| 20260902061708 | 82 | 148 | 3.0 | 5.0 | 0.00 | 0.00 | 0.00 | 86 | 1013.2 |
| 20260902061208 | 82 | 189 | 2.0 | 4.0 | 0.00 | 0.00 | 0.00 | 85 | 1013.1 |
| 20260902060708 | 82 | 179 | 2.0 | 3.0 | 0.00 | 0.00 | 0.00 | 85 | 1013.2 |
| 20260902060208 | 82 | 187 | 2.0 | 4.0 | 0.00 | 0.00 | 0.00 | 85 | 1013.2 |
| 20260902055708 | 82 | 126 | 2.0 | 4.0 | 0.00 | 0.00 | 0.00 | 85 | 1013.2 |
| 20260902055208 | 82 | 184 | 2.0 | 4.0 | 0.00 | 0.00 | 0.00 | 85 | 1013.2 |
| 20260902054714 | 83 | 178 | 2.0 | 4.0 | 0.00 | 0.00 | 0.00 | 85 | 1013.2 |
| 20260902054210 | 83 | 169 | 2.0 | 4.0 | 0.00 | 0.00 | 0.00 | 84 | 1013.2 |
| 20260902053714 | 83 | 166 | 1.0 | 3.0 | 0.00 | 0.00 | 0.00 | 84 | 1013.2 |
| 20260902053209 | 83 | 185 | 1.0 | 2.0 | 0.00 | 0.00 | 0.00 | 84 | 1013.2 |
| 20260902052209 | 83 | 82 | 1.0 | 2.0 | 0.00 | 0.00 | 0.00 | 84 | 1013.2 |
| 20260902051709 | 83 | 133 | 1.0 | 2.0 | 0.00 | 0.00 | 0.00 | 84 | 1013.2 |
| 20260902051209 | 83 | 149 | 1.0 | 2.0 | 0.00 | 0.00 | 0.00 | 84 | 1013.1 |
| 20260902050709 | 83 | 136 | 1.0 | 2.0 | 0.00 | 0.00 | 0.00 | 83 | 1013.1 |
| 20260902050154 | 83 | 151 | 1.0 | 2.0 | 0.00 | 0.00 | 0.00 | 83 | 1013.0 |
| 20260902045656 | 83 | 154 | 1.0 | 2.0 | 0.00 | 0.00 | 0.00 | 83 | 1013.0 |
| 20260902045140 | 84 | 163 | 1.0 | 4.0 | 0.00 | 0.00 | 0.00 | 83 | 1013.0 |
| 20260902044139 | 84 | 258 | 2.0 | 4.0 | 0.00 | 0.00 | 0.00 | 82 | 1013.0 |
| 20260902043139 | 84 | 164 | 2.0 | 3.0 | 0.00 | 0.00 | 0.00 | 82 | 1013.1 |
| 20260902042639 | 84 | 156 | 2.0 | 3.0 | 0.00 | 0.00 | 0.00 | 82 | 1013.0 |
| 20260902041640 | 84 | 132 | 2.0 | 3.0 | 0.00 | 0.00 | 0.00 | 82 | 1013.1 |
| 20260902041139 | 84 | 159 | 2.0 | 3.0 | 0.00 | 0.00 | 0.00 | 82 | 1013.0 |
| 20260902040639 | 84 | 168 | 2.0 | 3.0 | 0.00 | 0.00 | 0.00 | 82 | 1013.0 |
| 20260902040124 | 84 | 124 | 2.0 | 3.0 | 0.00 | 0.00 | 0.00 | 81 | 1013.0 |
| 20260902035625 | 84 | 177 | 2.0 | 4.0 | 0.00 | 0.00 | 0.00 | 81 | 1012.9 |
| 20260902035125 | 84 | 118 | 2.0 | 4.0 | 0.00 | 0.00 | 0.00 | 81 | 1012.9 |
| 20260902034625 | 85 | 162 | 2.0 | 4.0 | 0.00 | 0.00 | 0.00 | 81 | 1012.8 |
| 20260902034125 | 85 | 160 | 2.0 | 5.0 | 0.00 | 0.00 | 0.00 | 81 | 1012.8 |
| 20260902033625 | 85 | 143 | 2.0 | 5.0 | 0.00 | 0.00 | 0.00 | 81 | 1012.8 |
| 20260902033119 | 85 | 107 | 2.0 | 5.0 | 0.00 | 0.00 | 0.00 | 81 | 1012.8 |
| 20260902032120 | 85 | 136 | 2.0 | 7.0 | 0.00 | 0.00 | 0.00 | 80 | 1012.6 |
| 20260902031618 | 85 | 137 | 2.0 | 7.0 | 0.00 | 0.00 | 0.00 | 80 | 1012.5 |
| 20260902030614 | 85 | 101 | 3.0 | 7.0 | 0.00 | 0.00 | 0.00 | 80 | 1012.4 |
| 20260902030114 | 85 | 134 | 2.0 | 6.0 | 0.00 | 0.00 | 0.00 | 80 | 1012.3 |
| 20260902025614 | 85 | 145 | 2.0 | 6.0 | 0.00 | 0.00 | 0.00 | 80 | 1012.3 |
| 20260902024115 | 85 | 162 | 2.0 | 7.0 | 0.00 | 0.00 | 0.00 | 80 | 1012.1 |
| 20260902023614 | 85 | 125 | 2.0 | 7.0 | 0.00 | 0.00 | 0.00 | 79 | 1012.0 |
| 20260902023115 | 85 | 139 | 3.0 | 8.0 | 0.00 | 0.00 | 0.00 | 79 | 1011.9 |
| 20260902022614 | 85 | 137 | 2.0 | 8.0 | 0.00 | 0.00 | 0.00 | 79 | 1011.8 |
| 20260902022114 | 86 | 0 | 2.0 | 5.0 | 0.00 | 0.00 | 0.00 | 78 | 1011.7 |
| 20260902021614 | 86 | 83 | 2.0 | 5.0 | 0.00 | 0.00 | 0.00 | 78 | 1011.6 |
| 20260902021111 | 86 | 143 | 2.0 | 7.0 | 0.00 | 0.00 | 0.00 | 77 | 1011.6 |
| 20260902020116 | 86 | 102 | 2.0 | 8.0 | 0.00 | 0.00 | 0.00 | 77 | 1011.4 |
| 20260902015114 | 86 | 138 | 2.0 | 6.0 | 0.00 | 0.00 | 0.00 | 76 | 1011.2 |
| 20260902014610 | 86 | 135 | 2.0 | 6.0 | 0.00 | 0.00 | 0.00 | 76 | 1011.2 |
| 20260902013610 | 87 | 115 | 3.0 | 6.0 | 0.00 | 0.00 | 0.00 | 75 | 1011.2 |
| 20260902013114 | 87 | 143 | 3.0 | 6.0 | 0.00 | 0.00 | 0.00 | 75 | 1011.2 |
| 20260902012115 | 87 | 116 | 3.0 | 11.0 | 0.00 | 0.00 | 0.00 | 75 | 1011.1 |
| 20260902011610 | 87 | 133 | 3.0 | 8.0 | 0.00 | 0.00 | 0.00 | 74 | 1011.1 |
| 20260902010127 | 87 | 114 | 3.0 | 8.0 | 0.00 | 0.00 | 0.00 | 72 | 1011.0 |
| 20260902005610 | 88 | 120 | 3.0 | 8.0 | 0.00 | 0.00 | 0.00 | 73 | 1011.0 |
| 20260902004610 | 88 | 130 | 4.0 | 12.0 | 0.00 | 0.00 | 0.00 | 72 | 1011.0 |
| 20260902003610 | 88 | 77 | 4.0 | 10.0 | 0.00 | 0.00 | 0.00 | 71 | 1011.0 |
| 20260902003110 | 88 | 88 | 4.0 | 10.0 | 0.00 | 0.00 | 0.00 | 71 | 1011.0 |
| 20260902002610 | 89 | 126 | 4.0 | 10.0 | 0.00 | 0.00 | 0.00 | 71 | 1011.0 |
| 20260902002110 | 89 | 270 | 4.0 | 10.0 | 0.00 | 0.00 | 0.00 | 69 | 1010.9 |
| 20260902001610 | 89 | 124 | 4.0 | 9.0 | 0.00 | 0.00 | 0.00 | 69 | 1010.9 |
| 20260902001110 | 89 | 97 | 4.0 | 11.0 | 0.00 | 0.00 | 0.00 | 68 | 1010.9 |
| 20260902000119 | 90 | 146 | 4.0 | 11.0 | 0.00 | 0.00 | 0.00 | 68 | 1010.9 |
| 20260901235610 | 90 | 129 | 4.0 | 10.0 | 0.00 | 0.00 | 0.00 | 68 | 1010.9 |
| 20260901235110 | 90 | 97 | 4.0 | 11.0 | 0.00 | 0.00 | 0.00 | 67 | 1010.9 |
| 20260901234610 | 90 | 98 | 4.0 | 11.0 | 0.00 | 0.00 | 0.00 | 68 | 1010.8 |
| 20260901234110 | 91 | 198 | 4.0 | 8.0 | 0.00 | 0.00 | 0.00 | 68 | 1010.7 |
| 20260901233105 | 91 | 129 | 5.0 | 11.0 | 0.00 | 0.00 | 0.00 | 67 | 1010.7 |
| 20260901232601 | 91 | 131 | 4.0 | 10.0 | 0.00 | 0.00 | 0.00 | 67 | 1010.6 |
| 20260901232102 | 92 | 81 | 4.0 | 10.0 | 0.00 | 0.00 | 0.00 | 64 | 1010.5 |
| 20260901231102 | 93 | 115 | 4.0 | 12.0 | 0.00 | 0.00 | 0.00 | 61 | 1010.6 |
| 20260901230602 | 93 | 151 | 4.0 | 10.0 | 0.00 | 0.00 | 0.00 | 60 | 1010.5 |
| 20260901225602 | 93 | 168 | 5.0 | 9.0 | 0.00 | 0.00 | 0.00 | 59 | 1010.5 |
| 20260901225102 | 94 | 115 | 5.0 | 11.0 | 0.00 | 0.00 | 0.00 | 58 | 1010.5 |
| 20260901224602 | 94 | 113 | 5.0 | 11.0 | 0.00 | 0.00 | 0.00 | 57 | 1010.5 |
| 20260901224103 | 95 | 102 | 4.0 | 11.0 | 0.00 | 0.00 | 0.00 | 55 | 1010.4 |
| 20260901223603 | 95 | 116 | 4.0 | 11.0 | 0.00 | 0.00 | 0.00 | 55 | 1010.4 |
| 20260901223102 | 95 | 95 | 4.0 | 9.0 | 0.00 | 0.00 | 0.00 | 55 | 1010.3 |
| 20260901222602 | 95 | 129 | 4.0 | 10.0 | 0.00 | 0.00 | 0.00 | 54 | 1010.3 |
| 20260901221100 | 95 | 122 | 5.0 | 12.0 | 0.00 | 0.00 | 0.00 | 55 | 1010.2 |
| 20260901220600 | 96 | 104 | 4.0 | 12.0 | 0.00 | 0.00 | 0.00 | 52 | 1010.2 |
| 20260901220100 | 96 | 133 | 4.0 | 10.0 | 0.00 | 0.00 | 0.00 | 53 | 1010.1 |
| 20260901215557 | 96 | 136 | 4.0 | 12.0 | 0.00 | 0.00 | 0.00 | 54 | 1010.2 |
| 20260901215058 | 96 | 113 | 4.0 | 12.0 | 0.00 | 0.00 | 0.00 | 55 | 1010.3 |
| 20260901214057 | 96 | 71 | 4.0 | 11.0 | 0.00 | 0.00 | 0.00 | 53 | 1010.3 |
| 20260901213558 | 97 | 132 | 4.0 | 9.0 | 0.00 | 0.00 | 0.00 | 53 | 1010.3 |
| 20260901212557 | 97 | 174 | 4.0 | 11.0 | 0.00 | 0.00 | 0.00 | 53 | 1010.4 |
| 20260901212058 | 97 | 172 | 4.0 | 11.0 | 0.00 | 0.00 | 0.00 | 53 | 1010.5 |
| 20260901211557 | 97 | 65 | 4.0 | 9.0 | 0.00 | 0.00 | 0.00 | 53 | 1010.4 |